STARLINK-4732 (53870 NORAD) Tracking and Keplerian Element Data

This shows tracking and keplerian element data for the satellite.

Feedback or suggestion? Click here.




ElementValue
Catalog53870
NameSTARLINK-4732
Epoch Orbit1054
Epoch Day325.33334491
Epoch Year2022
RAAN305.5432
Inclination53.2145
Eccentricity0.0004268
Argument of Perigee5.3859
Mean Anonmoly71.2619
Mean Motion15.73192396
Decay Rate0.00045612
L11 53870U 22114BE 22325.33334491 .00045612 00000+0 32763-3 0 9998
L22 53870 53.2145 305.5432 0004268 5.3859 71.2619 15.73192396 10549



Live tracking and technical data element details for STARLINK-4732 (NORAD 53870). STARLINK-4732 can be tracked NOW for your location showing map with azimuth and elevation plus other details from your city location.







IsCatalogInMostPopularTable: catalog: 53870, numindb: 2
Update: records affected: 1



GetName: 53870 STARLINK-4732

Hit Count: updated at: Thu, 08 Dec 2022 10:23:48 GMT